Regional Weather Roundup
Issued by NWS Upton, NY

Current Version | Previous Version | Text Only | Print | Product List | Glossary On
Versions: 1 2 3 4 5 6 7 8 9 10 11 12 13 14 15 16 17 18 19 20 21 22 23 24 25 26 27 28 29 30 31 32 33 34 35 36 37 38 39 40 41 42 43 44 45 46 47 48 49 50
000
ASUS41 KOKX 241508
RWROKX

REGIONAL WEATHER ROUNDUP
NATIONAL WEATHER SERVICE NEW YORK NY
1000 AM EST FRI FEB 24 2017

NOTE: "FAIR" INDICATES FEW OR NO CLOUDS BELOW 12,000 FEET WITH NO
SIGNIFICANT WEATHER AND/OR OBSTRUCTIONS TO VISIBILITY.

NYZ071-072-176-178-NJZ106-104-241600-
NEW YORK CITY METRO AREA

CITY           SKY/WX    TMP DP  RH WIND       PRES   REMARKS
Central Park   SUNNY     63  53  70 VRB6      29.98R
Wall St Helipt NOT AVBL
LaGuardia APRT MOSUNNY   67  53  61 SW7       29.95S
Kennedy INTL   PTSUNNY   57  51  80 S7        29.98R
Breezy Point     N/A     50 N/A N/A SE3         N/A
Newark/Liberty PTSUNNY   66  55  67 SW7       29.95S
Teterboro      SUNNY     65  54  67 SW12      29.94F
$$

NYZ177-179-078>081-241600-
LONG ISLAND NEW YORK

CITY           SKY/WX    TMP DP  RH WIND       PRES   REMARKS
Jones Beach      N/A     48 N/A N/A S9          N/A
Matinecock PT  NOT AVBL
Farmingdale    SUNNY     60  52  74 SW10      29.98R
MacArthur/ISP  PTSUNNY   60  51  72 SW7       29.98R
Shirley        SUNNY     59  51  75 S13       30.00R
Westhampton    SUNNY     57  48  72 SW12      30.01R
Southampton    NOT AVBL
Bridgehampton  NOT AVBL
East Hampton     N/A     58  50  75 SW9G18    29.99S
Montauk          N/A     55  49  80 S8        30.01R
$$

NYZ052-065-067-241600-
HUDSON VALLEY

CITY           SKY/WX    TMP DP  RH WIND       PRES   REMARKS
White Plains   SUNNY     61  51  70 S7        29.95S
Newburgh       PTSUNNY   63  54  72 W6        29.94R
Montgomery     CLOUDY    62  55  77 VRB6      29.91S
Poughkeepsie   CLOUDY    58  51  78 SW3       29.92R
Albany         CLOUDY    52  45  77 N3        29.90S
$$

NJZ001-105-106-008-010-013-015-019>022-104-241600-
NEW JERSEY

CITY           SKY/WX    TMP DP  RH WIND       PRES   REMARKS
Newark/Liberty PTSUNNY   66  55  67 SW7       29.95S
Teterboro      SUNNY     65  54  67 SW12      29.94F
Caldwell       MOSUNNY   63  53  70 VRB5      29.95S
Somerville     SUNNY     64  53  67 VRB3      29.93F
Linden         NOT AVBL
Sussex         SUNNY     63  54  72 SW6       29.93S
Andover          N/A     64  52  64 SW10      29.93S
Trenton        SUNNY     65  55  70 SW10      29.95R
Millville      SUNNY     65  56  72 S8G17     29.97S
Atlantic City  MOSUNNY   68  53  58 S12       29.98R
Wrightstown    SUNNY     66  56  68 SW13      29.94R
Toms River     SUNNY     68  55  63 SW14G20   29.98R
Belmar         SUNNY     67  55  65 S13       29.98R
$$

PAZ047>061-062-071-241600-
EASTERN PENNSYLVANIA

CITY           SKY/WX    TMP DP  RH WIND       PRES   REMARKS
Philadelphia   MOSUNNY   65  54  67 SW12      29.95S
Allentown      SUNNY     65  53  65 VRB6      29.92F
Scranton       PTSUNNY   63  53  70 W9        29.88F
$$

CTZ002-004>006-009-010-012-RIZ004-006-007-MAZ004-011-015-241600-
SOUTHERN NEW ENGLAND
 IN CT

CITY           SKY/WX    TMP DP  RH WIND       PRES   REMARKS
Bradley INTL   PTSUNNY   60  50  69 S10       29.93F
Hartford       MOSUNNY   61  52  72 S8        29.94F
Danbury        MOSUNNY   60  51  72 SW9       29.96S
Wtrbury/Oxford PTSUNNY   55  48  76 SW5       29.97S
Bridgeport     CLOUDY    53  46  77 E5        29.97R
Meriden        MOSUNNY   57  49  74 SE8       29.96S
New Haven      CLOUDY    52  47  83 S6        29.97R
Chester          N/A     61  52  72 SW8       29.98R
Groton         CLOUDY    53  48  83 S6        29.99R
Wilimantic     CLOUDY    62  53  72 SW7       29.97S

 IN RI

CITY           SKY/WX    TMP DP  RH WIND       PRES   REMARKS
Providence     PTSUNNY   63  51  65 SW14G23   29.97R
Block Island   MOSUNNY   54  50  86 SW14      30.01R
Westerly       CLOUDY    59  49  69 SW8       30.00R
 IN MA

CITY           SKY/WX    TMP DP  RH WIND       PRES   REMARKS
Boston         PTSUNNY   59  51  75 S10       29.95S
Worcester      CLOUDY    57  48  72 SW17      29.93S
Westfield      CLOUDY    48  45  89 CALM      29.93F
Provincetown   SUNNY     55  50  83 SW15      29.99R
Nantucket      SUNNY     52  47  83 SW13      30.02R
$$

ANZ330-335-338-340-345-350-353-355-241600-
COASTAL MARINE OBSERVATIONS


STATION/POSITION TIME  SKY/WX   TEMP    WIND        PRES    VSBY  WAVE
                                AIR SEA DIR/SP/G                  HT/PER
                 (UTC)          (F)     (DEG/KT/KT) (MB)    (MI)  (FT/S)
NY HARB ENTRANCE 1350            46 43  190/ 10/ 12 1014.3          3/11
20 S FIRE ISLAND 1450            47 44  190/  8/  8 1015.5          3/11
GREAT SOUTH BAY  1415            49 36                N/A
23 SSW MONTAUK P 1350            50 43              1015.8          4/11
15 E BARNEGAT LI 1430               43                N/A           4/12
HUDSON CANYON    1450               47              1015.9          5/12
KINGS POINT      1448            58 39              1014.3
EXECUTION ROCKS  NOT AVBL
CENTRAL LI SOUND 1400            45      40/  4/  6   N/A           0
EASTERN LI SOUND NOT AVBL
ROBBINS REEF     1448            58     120/  5/  5 1014.6
$$


>>>>>>>>>>>>>>>>>>>>>>>>>>>> KEY <<<<<<<<<<<<<<<<<<<<<<<<<<<
>                                                          <
>     SKY/WX - Sky Condition/Present Weather               <
>     TMP    - Temperature in Fahrenheit                   <
>     DP     - Dew Point in Fahrenheit                     <
>     RH     - Relative Humidity in Percent                <
>     WIND   - Direction (from) and Speed in MPH           <
>     PRES   - Mean Sea Level Pressure (inches of Hg)      <
>     WCI    - Wind Chill Index                            <
>     VSB    - VISIBILITY IN MILES                         <
>     HX     - HEAT INDEX                                  <
>     TC     - TEMPERATURE IN CELSIUS                      <
>     VRB    - VARIABLE WIND DIRECTION                     <
>                                                          <
>>>>>>>>>>>>>>>>>>>>>>>>>>>> KEY <<<<<<<<<<<<<<<<<<<<<<<<<<<



USA.gov is the U.S. government's official web portal to all federal, state and local government web resources and services.